User: anonymous   Login
Location: Fort Wayne
(41.1310°N, 85.1290°W)
Time: 16:58:05
(UTC-04:00)
Language:

Cosmos 1980 - Orbit

View from above orbital plane
View from above orbital plane
View from above satellite
View from above satellite

Ground track
Ground track

The orbit data is extracted from the following two-line orbital elements,

1 19649U 88102A   15241.02760785  .00000268  00000-0  16410-3 0  9997
2 19649 071.0024 007.1619 0007192 243.5238 116.5147 14.14618731381491
Epoch (UTC): 29 August 2015 00:39:45
Eccentricity: 0.0007192
inclination: 71.0024°
perigee height: 838 km
apogee height: 849 km
right ascension of ascending node: 7.1619°
argument of perigee: 243.5238°
revolutions per day: 14.14618731
mean anomaly at epoch: 116.5147°
orbit number at epoch: 38149

The dashed part of the orbit path shows where the satellite is in the earth's shadow,  

DLR